• Em Portugal
  • Lista de países
  • Para 7 dias
  • Temperatura da água
  • Mapas de satélite
  • Mapa do tempo
  • Widgets de tempo
  • user-avatar
    Iniciar Sessão

    Previsão horária em Soelden

    Hoje, 20 Agosto, Segunda-feira

    Tempo Temperatura Precipitação Vento Pressão Humidade
    00:00 +8°C° 0,4 mm 1 m/s 587 mmHg 90%
    01:00 +8°C° 0,4 mm 1 m/s 587 mmHg 91%
    02:00 +8°C° 0,1 mm 1 m/s 587 mmHg 91%
    03:00 +8°C° 0,1 mm 1 m/s 587 mmHg 91%
    04:00 +8°C° 0,1 mm 1 m/s 587 mmHg 92%
    05:00 +9°C° 0,1 mm 1 m/s 587 mmHg 89%
    06:00 +10°C° 0,1 mm 1 m/s 588 mmHg 87%
    07:00 +11°C° 0,1 mm 1 m/s 588 mmHg 84%
    08:00 +13°C° 0,1 mm 1 m/s 589 mmHg 76%
    09:00 +14°C° 0,1 mm 1 m/s 590 mmHg 68%
    10:00 +16°C° 0,1 mm 1 m/s 591 mmHg 59%
    11:00 +18°C° 0,4 mm 1 m/s 591 mmHg 57%
    12:00 +19°C° 0,4 mm 1 m/s 591 mmHg 54%
    13:00 +19°C° 0,4 mm 2 m/s 591 mmHg 52%
    14:00 +18°C° 1 mm 2 m/s 591 mmHg 55%
    15:00 +17°C° 1 mm 2 m/s 590 mmHg 58%
    16:00 +17°C° 1 mm 2 m/s 590 mmHg 61%
    17:00 +15°C° 0,9 mm 2 m/s 589 mmHg 68%
    18:00 +14°C° 0,9 mm 1 m/s 588 mmHg 75%
    19:00 +12°C° 0,9 mm 1 m/s 588 mmHg 83%
    20:00 +11°C° 0,4 mm 1 m/s 588 mmHg 85%
    21:00 +10°C° 0,4 mm 1 m/s 588 mmHg 87%
    22:00 +10°C° 0,4 mm 1 m/s 588 mmHg 90%
    23:00 +9°C° 0,1 mm 1 m/s 587 mmHg 90%

    Amanhã, 21 Agosto, Terça-feira

    Tempo Temperatura Precipitação Vento Pressão Humidade
    00:00 +9°C° 0,1 mm 1 m/s 587 mmHg 91%
    01:00 +9°C° 0,1 mm 1 m/s 587 mmHg 92%
    02:00 +8°C° 0 mm 1 m/s 587 mmHg 92%
    03:00 +8°C° 0 mm 1 m/s 587 mmHg 92%
    04:00 +8°C° 0 mm 1 m/s 586 mmHg 91%
    05:00 +9°C° 0 mm 1 m/s 587 mmHg 89%
    06:00 +10°C° 0 mm 1 m/s 588 mmHg 86%
    07:00 +11°C° 0 mm 1 m/s 588 mmHg 83%
    08:00 +13°C° 0,1 mm 1 m/s 589 mmHg 75%
    09:00 +15°C° 0,1 mm 1 m/s 590 mmHg 66%
    10:00 +18°C° 0,1 mm 1 m/s 591 mmHg 58%
    11:00 +18°C° 0,8 mm 1 m/s 591 mmHg 57%
    12:00 +19°C° 0,8 mm 1 m/s 591 mmHg 57%
    13:00 +18°C° 0,8 mm 2 m/s 590 mmHg 56%
    14:00 +17°C° 1,3 mm 2 m/s 590 mmHg 58%
    15:00 +17°C° 1,3 mm 2 m/s 590 mmHg 61%
    16:00 +17°C° 1,3 mm 2 m/s 589 mmHg 63%
    17:00 +15°C° 0,9 mm 1 m/s 589 mmHg 70%
    18:00 +13°C° 0,9 mm 1 m/s 588 mmHg 77%
    19:00 +12°C° 0,9 mm 1 m/s 587 mmHg 84%
    20:00 +11°C° 0,5 mm 1 m/s 587 mmHg 85%
    21:00 +10°C° 0,5 mm 1 m/s 587 mmHg 87%
    22:00 +10°C° 0,5 mm 1 m/s 587 mmHg 89%
    23:00 +10°C° 0,2 mm 1 m/s 587 mmHg 90%

    Depois de amanhã, 22 Agosto, Quarta-feira

    Tempo Temperatura Precipitação Vento Pressão Humidade
    00:00 +9°C° 0,2 mm 1 m/s 587 mmHg 90%
    01:00 +9°C° 0,2 mm 1 m/s 587 mmHg 91%
    02:00 +9°C° 0 mm 1 m/s 587 mmHg 91%
    03:00 +8°C° 0 mm 1 m/s 587 mmHg 91%
    04:00 +8°C° 0 mm 1 m/s 586 mmHg 91%
    05:00 +9°C° 0 mm 1 m/s 587 mmHg 88%
    06:00 +10°C° 0 mm 1 m/s 587 mmHg 86%
    07:00 +11°C° 0 mm 1 m/s 588 mmHg 83%
    08:00 +13°C° 0,1 mm 1 m/s 588 mmHg 75%
    09:00 +15°C° 0,1 mm 1 m/s 589 mmHg 67%
    10:00 +16°C° 0,1 mm 1 m/s 590 mmHg 58%
    11:00 +18°C° 0,7 mm 1 m/s 590 mmHg 58%
    12:00 +18°C° 0,7 mm 1 m/s 590 mmHg 58%
    13:00 +17°C° 0,7 mm 2 m/s 590 mmHg 58%
    14:00 +17°C° 1,1 mm 2 m/s 589 mmHg 60%
    15:00 +16°C° 1,1 mm 1 m/s 589 mmHg 62%
    16:00 +16°C° 1,1 mm 1 m/s 589 mmHg 65%
    17:00 +15°C° 0,8 mm 1 m/s 588 mmHg 71%
    18:00 +13°C° 0,8 mm 1 m/s 588 mmHg 77%
    19:00 +11°C° 0,8 mm 0 m/s 587 mmHg 83%
    20:00 +10°C° 0,6 mm 0 m/s 587 mmHg 85%
    21:00 +11°C° 0,6 mm 1 m/s 587 mmHg 86%
    22:00 +10°C° 0,6 mm 1 m/s 587 mmHg 87%
    23:00 +10°C° 0,2 mm 1 m/s 587 mmHg 88%

    23 Agosto, Quinta-feira

    Tempo Temperatura Precipitação Vento Pressão Humidade
    00:00 +10°C° 0,2 mm 1 m/s 586 mmHg 88%
    01:00 +9°C° 0,2 mm 1 m/s 586 mmHg 89%
    02:00 +9°C° 0,1 mm 1 m/s 586 mmHg 89%
    03:00 +9°C° 0,1 mm 1 m/s 586 mmHg 89%
    04:00 +9°C° 0,1 mm 1 m/s 585 mmHg 89%
    05:00 +9°C° 0,1 mm 1 m/s 586 mmHg 87%
    06:00 +10°C° 0,1 mm 1 m/s 586 mmHg 85%
    07:00 +11°C° 0,1 mm 1 m/s 586 mmHg 83%
    08:00 +12°C° 0,2 mm 1 m/s 587 mmHg 75%
    09:00 +13°C° 0,2 mm 0 m/s 588 mmHg 68%
    10:00 +15°C° 0,2 mm 0 m/s 588 mmHg 61%
    11:00 +16°C° 0,7 mm 1 m/s 588 mmHg 60%
    12:00 +18°C° 0,7 mm 1 m/s 588 mmHg 59%
    13:00 +18°C° 0,7 mm 1 m/s 588 mmHg 59%
    14:00 +16°C° 1,4 mm 1 m/s 587 mmHg 63%
    15:00 +15°C° 1,4 mm 1 m/s 587 mmHg 68%
    16:00 +15°C° 1,4 mm 1 m/s 586 mmHg 72%
    17:00 +13°C° 1,5 mm 1 m/s 586 mmHg 77%
    18:00 +12°C° 1,5 mm 1 m/s 585 mmHg 82%
    19:00 +10°C° 1,5 mm 0 m/s 585 mmHg 87%
    20:00 +10°C° 0,6 mm 1 m/s 585 mmHg 88%
    21:00 +10°C° 0,6 mm 1 m/s 585 mmHg 89%
    22:00 +10°C° 0,6 mm 1 m/s 585 mmHg 90%
    23:00 +9°C° 0,1 mm 1 m/s 584 mmHg 90%

    24 Agosto, Sexta-feira

    Tempo Temperatura Precipitação Vento Pressão Humidade
    00:00 +9°C° 0,1 mm 1 m/s 584 mmHg 90%
    01:00 +8°C° 0,1 mm 1 m/s 583 mmHg 91%
    02:00 +8°C° 0,1 mm 1 m/s 583 mmHg 91%
    03:00 +8°C° 0,1 mm 1 m/s 583 mmHg 91%
    04:00 +7°C° 0,1 mm 1 m/s 582 mmHg 91%
    05:00 +8°C° 0,1 mm 1 m/s 583 mmHg 88%
    06:00 +9°C° 0,1 mm 1 m/s 583 mmHg 86%
    07:00 +10°C° 0,1 mm 1 m/s 583 mmHg 83%
    08:00 +12°C° 0,1 mm 1 m/s 584 mmHg 76%
    09:00 +13°C° 0,1 mm 1 m/s 585 mmHg 68%
    10:00 +15°C° 0,1 mm 1 m/s 585 mmHg 61%
    11:00 +15°C° 0,7 mm 1 m/s 585 mmHg 61%
    12:00 +15°C° 0,7 mm 1 m/s 585 mmHg 61%
    13:00 +16°C° 0,7 mm 2 m/s 585 mmHg 61%
    14:00 +15°C° 1,6 mm 2 m/s 585 mmHg 67%
    15:00 +14°C° 1,6 mm 2 m/s 584 mmHg 72%
    16:00 +13°C° 1,6 mm 2 m/s 584 mmHg 78%
    17:00 +12°C° 2,3 mm 2 m/s 583 mmHg 83%
    18:00 +11°C° 2,3 mm 1 m/s 583 mmHg 88%
    19:00 +9°C° 2,3 mm 1 m/s 582 mmHg 93%
    20:00 +9°C° 1,5 mm 1 m/s 582 mmHg 93%
    21:00 +7°C° 1,5 mm 2 m/s 582 mmHg 94%
    22:00 +6°C° 1,5 mm 2 m/s 581 mmHg 95%
    23:00 +6°C° 1,7 mm 2 m/s 581 mmHg 95%

    25 Agosto, Sábado

    Tempo Temperatura Precipitação Vento Pressão Humidade
    00:00 +5°C° 1,7 mm 2 m/s 581 mmHg 95%
    01:00 +5°C° 1,7 mm 2 m/s 580 mmHg 96%
    02:00 +5°C° 2,9 mm 2 m/s 580 mmHg 96%
    03:00 +4°C° 2,9 mm 2 m/s 579 mmHg 96%
    04:00 +4°C° 2,9 mm 2 m/s 579 mmHg 96%
    05:00 +3°C° 3,1 mm 2 m/s 579 mmHg 96%
    06:00 +2°C° 3,1 mm 3 m/s 579 mmHg 96%
    07:00 +2°C° 3,1 mm 3 m/s 579 mmHg 95%
    08:00 +1°C° 1,4 mm 3 m/s 579 mmHg 94%
    09:00 +1°C° 1,4 mm 3 m/s 579 mmHg 93%
    10:00 +1°C° 1,4 mm 3 m/s 579 mmHg 91%
    11:00 +2°C° 0,9 mm 3 m/s 579 mmHg 90%
    12:00 +2°C° 0,9 mm 3 m/s 579 mmHg 89%
    13:00 +2°C° 0,9 mm 3 m/s 579 mmHg 88%
    14:00 +1°C° 2,6 mm 3 m/s 578 mmHg 90%
    15:00 +1°C° 2,6 mm 3 m/s 578 mmHg 92%
    16:00 0°C° 2,6 mm 3 m/s 577 mmHg 95%
    17:00 0°C° 2 mm 3 m/s 578 mmHg 95%
    18:00 -1°C° 2 mm 3 m/s 578 mmHg 95%
    19:00 -1°C° 2 mm 3 m/s 578 mmHg 95%
    20:00 -1°C° 1 mm 3 m/s 578 mmHg 95%
    21:00 -2°C° 1 mm 3 m/s 578 mmHg 95%
    22:00 -2°C° 1 mm 3 m/s 578 mmHg 94%
    23:00 -2°C° 0,3 mm 3 m/s 578 mmHg 94%
    Mostrar mais